Domov               UVHVVR             MKGP            O straneh              
ZDRAVSTVENO VARSTVO RASTLIN
  MREŽA AGROMET. POSTAJ
 ► PROGNOSTIČNA OBVESTILA
AGROMETEOROLOŠKI PODATKI -
ARSO
OBVLADOVANJE TVEGANJ ZARADI
NEUGODNIH VREMENSKIH RAZMER
  ► NARAVNE NESREČE
  ► SUŠA/MOČA
  ► NAMAKANJE
  ► ŽLED (gozdarstvo)
KARTOGRAFSKI PRIKAZI
SPLETNE POVEZAVE
PROJEKTI IN PUBLIKACIJE

AGROMETEOROLOŠKA MREŽA: VREMENSKE POSTAJE IN FENOLOŠKA OPAZOVANJA

Pregled podatkov za lokacijo Zimica, meteorološka postaja 27472

Pregled senzorjev na lokaciji

ID Ime Zadnja
vrednost
Datum
zadnje
spremembe
Tip
senzorja
1712 Omočenost lista (U) 0 U 18.10.2017 17:59 A730WET
1713 Temperatura 2 m ( °C) 19,8 °C 18.10.2017 18:00 Generic -40 - +60 °C
1714 Relativna vlaga 2 m (% RH) 39,83 % RH 18.10.2017 18:00 Generic 0 - 100 %
1715 Padavine 0.2 mm (mm) 0 mm 18.10.2017 17:59 Generic 0.2 mm

Pregled podatkov zadnjih 24 ur

Zap.
št.
Datum in čas Zimica
Omočenost
lista
Padavine
0.2
mm
Relativna
vlaga
2
m
Temperatura
2
m
0 18.10.2017 17:00 0 0 39,83 19,8
1 18.10.2017 16:30 0 0 34,8 20,98
2 18.10.2017 16:00 0 0 32,33 21,64
3 18.10.2017 15:30 0 0 30,4 22,15
4 18.10.2017 15:00 0 0 29,87 22,25
5 18.10.2017 14:30 0 0 30,72 22,37
6 18.10.2017 14:00 0 0 32,84 22,25
7 18.10.2017 13:30 0 0 33,87 21,98
8 18.10.2017 13:00 0 0 34,16 21,98
9 18.10.2017 12:30 0 0 39,8 21,1
10 18.10.2017 12:00 0 0 40,88 20,68
11 18.10.2017 11:30 0 0 43,08 20,07
12 18.10.2017 11:00 0 0 44,37 19,73
13 18.10.2017 10:30 0 0 52,99 18,46
14 18.10.2017 10:00 0 0 63,83 16,48
15 18.10.2017 09:30 0 0 74,63 14,99
16 18.10.2017 09:00 0 0 73,14 14,92
17 18.10.2017 08:30 0 0 89,16 12,99
18 18.10.2017 08:00 0 0 99,93 10,38
19 18.10.2017 07:30 0 0 99,93 8,28
20 18.10.2017 07:00 0 0 99,93 7,57
21 18.10.2017 06:30 0 0 99,93 8,06
22 18.10.2017 06:00 0 0 99,93 8,03
23 18.10.2017 05:30 0 0 99,93 8,13
24 18.10.2017 05:00 0 0 99,93 7,52
25 18.10.2017 04:30 0 0 99,93 7,79
26 18.10.2017 04:00 0 0 99,93 8,23
27 18.10.2017 03:30 0 0 99,93 8,42
28 18.10.2017 03:00 0 0 99,93 8,82
29 18.10.2017 02:30 0 0 99,93 8,62
30 18.10.2017 02:00 0 0 99,93 8,69
31 18.10.2017 01:30 0 0 99,93 9,21
32 18.10.2017 01:00 0 0 99,93 9,38
33 18.10.2017 00:30 0 0 99,93 9,72
34 18.10.2017 00:00 0 0 99,93 10,23
35 17.10.2017 23:30 0 0 99,93 10,4
36 17.10.2017 23:00 0 0 99,93 10,5
37 17.10.2017 22:30 0 0 99,93 10,74
38 17.10.2017 22:00 0 0 99,93 11,01
39 17.10.2017 21:30 0 0 99,93 11,09
40 17.10.2017 21:00 0 0 99,93 11,36
41 17.10.2017 20:30 0 0 99,93 11,5
42 17.10.2017 20:00 0 0 99,93 11,79
43 17.10.2017 19:30 0 0 99,41 12,36
44 17.10.2017 19:00 0 0 98,63 12,48
© 2011 Ministrstvo za kmetijstvo, gozdarstvo in prehrano. Vse pravice pridržane.